STARLINK-32355, 61634

Orbit data source: Space-Track

STARLINK-32355, 61634 is a payload satellite owned by SpaceX/Seattle (US) in LEO that was launched on Wed, 23 Oct 2024 UTC via an FALCON 9 launch vehicle from the Air Force Eastern Test Range (AFETR). Payload-class satellites include a variety of spacecraft equipped with specific instruments for various scientific and technological missions. These include communications satellites like Starlink; space stations such as the ISS; scientific satellites like the Hubble; Earth observation satellites from companies like Planet Labs, Umbra, and HawkEye 360; GPS; miniature CubeSats for education and research; and military/defense satellites.

Loading next visibility...
Identifier
61634, 2024-191P
Orbit
LEO
Last TLE update
13 hours ago
Origin
Manufacturer
SpaceX/Seattle
Mission
Operational Commercial Communications
Bus & Motor
STARLINK V2M, Unknown motor
Mass
730 kg wet, ~700 kg dry
Launch date (UTC)
2024-10-23 (8 months ago)
Launch vehicle
FALCON 9
Launch site
Air Force Eastern Test Range (AFETR)
Object type
Payload
Rocket body
Debris
Shape & HBR
Box + 2 Pan, 29 m
Radar Cross Section
36.964 m², Large (>1 m²)

Expand to show TLE details & history

TLE from 13 hours ago
0 STARLINK-32355
1 61634U 24191P   25173.06600787  .00000065  00000-0  11877-4 0  9998
2 61634  43.0003 190.1547 0001194 273.0423  87.0292 15.27576058 38336
Epoch: 2025-06-22T01:35Z
TLE epoch observation values (Epoch: 2025-06-22T01:35:03.079Z)
Latitude
-0.00004°
Longitude
-104.10415°
Altitude
482.794 km
Speed
7.626 km/s
True Right ascension
12h 40m 37s
True Declination
0° 00' 00"
Sunlit
Object was in daylight at epoch
Visualization orbit readout
Latitude
31.40635°
Longitude
-66.48461°
Altitude
484.428 km
Speed
7.628 km/s
Apparent Right ascension
14h 22m 49s
Apparent Declination
-2° 48' 32"
Sunlit
Object is in partial shadow
Visualization observer readout
Local Sidereal Time
01:24:51
Azimuth
336.794° NNW
Elevation
-50.637°
Doppler factor
1
Orbital elements
Apogee altitude
485.825 km
Perigee altitude
484.187 km
Semi-major axis
6,863.143 km
Eccentricity
0.00012
Inclination
43.0003°
RAAN
190.1547°
Arg. of periapsis
273.0423°
True anomaly
Unknown
Mean anomaly
87.0292°
Eccentric anomaly
Unknown
Mean motion
3.81732 °/min
Orbital period
94.31 mins
BSTAR
0.000011877
Loading maneuver chart data...
Loading SW <> Apogee altitude chart data...
Loading historical data...
Loading historical data...
Loading historical data...
Loading historical data...
Loading historical data...
Loading historical data...
Loading historical data...

STARLINK-32355 Visibility forecast

Observer location: undefined°, undefined°

Span
Click to sort rows by Start time (UTC) header in descending order
Start Az.
Max El. time (UTC)
Max El. Az.
Max El.
End time (UTC)
End Az.
6 mins2025-06-23 04:28:15.138Z226.003° WSW2025-06-23 04:31:15.138Z172.358° S35.245°2025-06-23 04:34:15.138Z84.029° E
5 mins2025-06-23 06:08:15.138Z274.38° WNW2025-06-23 06:10:15.138Z325.144° NNW40.402°2025-06-23 06:13:15.138Z67.707° E
6 mins2025-06-23 07:47:15.138Z293.276° NW2025-06-23 07:50:15.138Z42.836° NE37.95°2025-06-23 07:53:15.138Z87.136° E
6 mins2025-06-23 09:26:15.138Z278.507° WNW2025-06-23 09:28:15.138Z239.008° WSW37.828°2025-06-23 09:32:15.138Z127.051° SE
|